Bellingham, Washington, United States (98225)
Lat: 48.76N, Lon: 122.49W
Wx Zone: WAZ503
Local Info
Past Weather Observations for Sunday, February 7, 2016

NOTE: This archive is for the closest National Weather Service station to Bellingham. Information may differ from the station used for current weather conditions.

Click here for Long-term Archive

Time Weather Temperature Dewpoint Humidity Pressure Winds Precip Visibility
23:53
Overcast
45°F / 7°C 37°F / 3°C 76% 30.54 in
(1034 mb)
N 8.1 mph
(N 13 kph)
- 10SM
22:53
Overcast
45°F / 7°C 37°F / 3°C 76% 30.54 in
(1034 mb)
N 5.8 mph
(N 9 kph)
- 10SM
21:53
Mostly Cloudy
45°F / 7°C 37°F / 3°C 76% 30.54 in
(1034 mb)
NNE 8.1 mph
(NNE 13 kph)
- 10SM
20:53
Partly Cloudy
45°F / 7°C 36°F / 2°C 71% 30.54 in
(1034 mb)
N 9.2 mph
(N 15 kph)
- 10SM
19:53
Overcast
46°F / 8°C 36°F / 2°C 66% 30.54 in
(1034 mb)
NNE 6.9 mph
(NNE 11 kph)
- 10SM
18:53
Overcast
46°F / 8°C 37°F / 3°C 71% 30.57 in
(1035 mb)
NNE 9.2 mph
(NNE 15 kph)
- 10SM
17:53
Overcast
46°F / 8°C 37°F / 3°C 71% 30.57 in
(1035 mb)
N 9.2 mph
(N 15 kph)
- 10SM
16:53
Overcast
46°F / 8°C 37°F / 3°C 71% 30.57 in
(1035 mb)
N 5.8 mph
(N 9 kph)
- 10SM
15:53
Overcast
46°F / 8°C 37°F / 3°C 71% 30.57 in
(1035 mb)
N 6.9 mph
(N 11 kph)
- 10SM
14:53
Overcast
46°F / 8°C 37°F / 3°C 71% 30.57 in
(1035 mb)
N 5.8 mph
(N 9 kph)
- 10SM
13:53
Overcast
46°F / 8°C 37°F / 3°C 71% 30.57 in
(1035 mb)
N 6.9 mph
(N 11 kph)
- 10SM
12:53
Overcast
45°F / 7°C 37°F / 3°C 76% 30.6 in
(1036 mb)
N 9.2 mph
(N 15 kph)
0.00 in
(0.00 mm)
10SM
11:53
Overcast
Light Rain
45°F / 7°C 37°F / 3°C 76% 30.6 in
(1036 mb)
NNE 9.2 mph
(NNE 15 kph)
0.00 in
(0.00 mm)
10SM
10:53
Overcast
43°F / 6°C 37°F / 3°C 81% 30.6 in
(1036 mb)
NNE 9.2 mph
(NNE 15 kph)
0.01 in
(0.25 mm)
10SM
09:53
Overcast
39°F / 4°C 37°F / 3°C 93% 30.6 in
(1036 mb)
N 5.8 mph
(N 9 kph)
0.00 in
(0.00 mm)
10SM
08:53
Overcast
37°F / 3°C 36°F / 2°C 93% 30.57 in
(1035 mb)
Calm 0.00 in
(0.00 mm)
10SM
07:53
Overcast
Light Rain
36°F / 2°C 36°F / 2°C 100% 30.57 in
(1035 mb)
Calm 0.00 in
(0.00 mm)
10SM
06:53
Overcast
34°F / 1°C 34°F / 1°C 100% 30.54 in
(1034 mb)
Calm - 10SM
05:53
Clear
32°F / 0°C 30°F / -1°C 93% 30.54 in
(1034 mb)
Calm - 10SM
04:53
Clear
34°F / 1°C 32°F / 0°C 93% 30.54 in
(1034 mb)
Calm - 10SM
03:53
Clear
34°F / 1°C 32°F / 0°C 93% 30.54 in
(1034 mb)
Calm - 10SM
02:53
Partly Cloudy
37°F / 3°C 34°F / 1°C 87% 30.54 in
(1034 mb)
NNE 3.5 mph
(NNE 6 kph)
- 10SM
01:53
Overcast
36°F / 2°C 34°F / 1°C 93% 30.54 in
(1034 mb)
N 6.9 mph
(N 11 kph)
- 10SM
00:53
Clear
36°F / 2°C 34°F / 1°C 93% 30.51 in
(1033 mb)
N 3.5 mph
(N 6 kph)
- 10SM
Time Weather Temperature Dewpoint Humidity Pressure Winds Precip Visibility


Weather for websites

WeatherForYou.com, LLC is not responsible for any damages or problems caused by this service. Current weather conditions are obtained from the closest station including government and personal stations which may have varying degrees of accuracy. Weather forecasts are derived from the NOAA NDFD. Like all things, this site belongs to Jesus Christ... He just trusts us to maintain it. If you have any questions or comments email webmaster@weatherforyou.com

Copyright © 2016, WeatherForYou.com LLC. All rights reserved.